Regional Weather Roundup
Issued by NWS State College, PA

Home | Current Version | Previous Version | Text Only | Print | Product List | Glossary Off
Versions: 1 2 3 4 5 6 7 8 9 10 11 12 13 14 15 16 17 18 19 20 21 22 23 24 25 26 27 28 29 30 31 32 33 34 35 36 37 38 39 40 41 42 43 44 45 46 47 48 49 50

000
ASUS41 KCTP 200003
RWRCTP

REGIONAL WEATHER ROUNDUP
NATIONAL WEATHER SERVICE STATE COLLEGE PA
800 PM EDT FRI SEP 19 2014

Note: "fair" indicates few or no clouds below 12,000 feet with no
significant weather and/or obstructions to visibility.

* = STATION THAT DOES NOT REPORT PRECIPITATION /E.G. RAIN...SNOW...ETC/
    THUNDER OR FOG.

PAZ002>004-007>009-013>016-020>023-029>032-200100-
WESTERN PENNSYLVANIA

CITY           SKY/WX    TMP DP  RH WIND       PRES   REMARKS
ERIE           CLEAR     59  50  72 SE3       30.14S
MEADVILLE      PTCLDY    63  51  65 CALM      30.15F
FRANKLIN*      PTCLDY    61  52  72 SE12      30.17F
NEW CASTLE     NOT AVBL
BEAVER COUNTY  CLEAR     66  54  63 SE5       30.15F
BUTLER*        PTCLDY    64  54  68 SE8       30.18S
PITTSBURGH INT PTCLDY    68  55  63 SE9       30.14F
PITTSBURGH     PTCLDY    66  52  60 SE10      30.16S
INDIANA*       MOCLDY    64  52  63 VRB7G13   30.24S
LATROBE        PTCLDY    66  54  63 SE10G20   30.19S
WASHINGTON CO* MOCLDY    64  55  72 E6        30.16S
$$

PAZ004>006-010>012-017>019-024>028-033>037-041-042-045-046-049>053-200100-
CENTRAL PENNSYLVANIA

CITY           SKY/WX    TMP DP  RH WIND       PRES   REMARKS
BRADFORD       PTCLDY    57  49  74 SE7       30.22F
DUBOIS         PTCLDY    59  51  75 SE8       30.21S
CLEARFIELD     CLOUDY    61  52  72 CALM      30.24F
JOHNSTOWN      MOCLDY    59  50  72 SE10      30.25R
ALTOONA        CLOUDY    63  52  67 VRB5      30.26S
STATE COLLEGE  MOCLDY    61  52  72 S5        30.26R
WILLIAMSPORT   CLEAR     65  49  56 SE13      30.25R
SELINSGROVE    MOCLDY    63  52  67 SE5       30.28R
FT INDIANTOWN  PTCLDY    60  55  84 N2        30.30R
CAPITAL CITY   MOCLDY    66  53  63 SE12      30.28R
HARRISBURG     PTCLDY    64  54  69 SE7       30.28R
YORK           CLOUDY    64  55  72 SE8       30.29R
$$

PAZ038>040-043-044-047-048-054-055-060>062-067>071-200100-
EASTERN PENNSYLVANIA

CITY           SKY/WX    TMP DP  RH WIND       PRES   REMARKS
SCRANTON       MOCLDY    61  47  59 S9G17     30.29R
MOUNT POCONO   CLEAR     52  46  80 SE7       30.33R
ALLENTOWN      CLEAR     61  49  64 SE6       30.33R
QUAKERTOWN*    CLEAR     59  50  72 SE3       30.34R
READING        PTCLDY    64  51  62 SE7       30.31R
LANCASTER      PTCLDY    60  52  74 SE6       30.30R
COATESVILLE    CLEAR     59  54  82 SE6       30.33R
POTTSTOWN      CLEAR     59  51  75 CALM      30.34R
BLUE BELL      CLEAR     59  54  82 E5        30.32R
DOYLESTOWN     CLEAR     57  51  80 CALM      30.34R
WILLOW GROVE   NOT AVBL
NORTH PHILA    CLEAR     60  50  69 E9        30.35R
PHILADELPHIA   PTCLDY    62  54  74 E13       30.33R
$$



USA.gov is the U.S. government's official web portal to all federal, state and local government web resources and services.